Location: Helion Bumpstead
(52.0500°N, 0.4000°E)
Time: 04:26:19
(UTC+00:00)

Cosmos 2237 Rocket - Visible Passes

Search period start: 19 February 2026 00:00
Search period end: 01 March 2026 00:00
Orbit: 834 x 849 km, 71.0° (Epoch: 18 February)

Date Brightness Start Highest point End Pass type
(mag) Time Alt. Az. Time Alt. Az. Time Alt. Az.
19 Feb 5.9 06:30:26 10° ESE 06:32:14 12° E 06:34:02 10° ENE visible
19 Feb 5.1 18:42:50 10° NW 18:46:46 20° W 18:50:43 10° SW visible
20 Feb 5.9 06:15:44 10° ESE 06:17:05 11° E 06:18:26 10° E visible
20 Feb 5.1 18:27:32 10° NW 18:31:36 21° W 18:35:40 10° SSW visible
21 Feb 6.0 06:01:19 10° E 06:01:56 10° E 06:02:33 10° E visible
21 Feb 5.1 18:12:15 10° NW 18:16:26 22° W 18:20:38 10° SSW visible
22 Feb 5.1 17:56:58 10° NW 18:01:17 23° WSW 18:05:34 10° SSW visible
27 Feb 3.6 06:08:19 10° S 06:13:36 43° ESE 06:18:57 10° NE visible
28 Feb 3.7 05:53:11 10° S 05:58:26 41° ESE 06:03:43 10° NE visible
